Flag for Germany Weather past 2 weeks in Garbsen, Lower Saxony, Germany

Now
77 °F

Scattered clouds.


Feels Like: 79 °F
Forecast: 64 / 79 °F
Wind: 7 mph from Northeast

Location: Hannover

Current Time: Jul 22, 2014 at 2:03:36 PM

Latest Report: Jul 22, 2014 at 1:20 PM


Visibility: N/A

Pressure: 30.07 "Hg

Humidity: 65%

Dew point: 64 °F

Location of GarbsenLocation

Historic Weather in Garbsen — Graph

°F

Garbsen temperature yesterday

Maximum temperature yesterday: 77 °F (at 3:50 PM)
Minimum temperature yesterday: 68 °F (at 2:50 AM)
Average temperature yesterday: 72 °F

Past Weeks' High & Low Weather Summary

 TemperatureHumidityPressure
High91 °F (Jul 19, 2:50 PM)100% (Jul 8, 7:50 AM)30.18 "Hg (Jul 8, 7:50 AM)
Low50 °F (Jul 12, 4:50 AM)26% (Jul 19, 2:20 PM)29.59 "Hg (Jul 9, 9:50 AM)
Average69 °F74%29.92 "Hg
* Reported Jul 7 12:20 PM — Jul 22 12:50 PM, Garbsen, Weather by CustomWeather, © 2014

Note: Actual official high and low records may vary slightly from our data, if they occured in-between our weather recording intervals... More about our weather records

Advertising

Garbsen weather history for previous 24 hours

 ConditionsComfort  
Time TempWeatherWind HumidityBarometerVisibility
12:50 PM
Jul 22
77 °FScattered clouds.8 mph61%30.07 "HgN/A
12:20 PM73 °FPartly sunny.5 mph69%30.07 "HgN/A
11:50 AM72 °FBroken clouds.6 mph73%30.07 "HgN/A
11:20 AM70 °FBroken clouds.5 mph78%30.07 "HgN/A
10:50 AM68 °FPartly sunny.5 mph83%30.07 "HgN/A
10:20 AM68 °FOvercast.7 mph83%30.07 "HgN/A
9:50 AM66 °FOvercast.8 mph83%30.07 "HgN/A
9:20 AM64 °FOvercast.9 mph88%30.04 "HgN/A
8:50 AM64 °FOvercast.9 mph88%30.04 "HgN/A
8:20 AM64 °FLow clouds.8 mph88%30.04 "HgN/A
7:50 AM64 °FPartly sunny.8 mph88%30.04 "HgN/A
7:20 AM63 °FPartly sunny.8 mph94%30.04 "HgN/A
6:50 AM63 °FPartly sunny.8 mph94%30.01 "HgN/A
6:20 AM61 °FPartly cloudy.6 mph94%30.01 "HgN/A
5:50 AM61 °FClear.7 mph94%30.01 "Hg10 mi
5:20 AM61 °FClear.7 mph88%29.98 "Hg10 mi
4:50 AM59 °FClear.6 mph94%29.98 "Hg10 mi
4:20 AM59 °FClear.5 mph94%29.98 "Hg10 mi
3:50 AM61 °FClear.6 mph88%29.98 "Hg10 mi
3:20 AM61 °FPassing clouds.3 mph83%29.98 "HgN/A
2:50 AM61 °FClear.3 mph83%29.98 "Hg10 mi
2:20 AM64 °FClear.2 mph73%29.98 "Hg10 mi
1:50 AM66 °FClear.6 mph73%29.98 "Hg10 mi
1:20 AM66 °FClear.6 mph73%29.95 "Hg10 mi
12:50 AM66 °FPassing clouds.6 mph73%29.95 "HgN/A
12:20 AM68 °FClear.8 mph69%29.95 "Hg10 mi
11:50 PM
Jul 21
68 °FClear.7 mph69%29.95 "Hg10 mi
11:20 PM70 °FClear.7 mph64%29.95 "Hg10 mi
10:50 PM72 °FClear.7 mph61%29.92 "Hg10 mi
10:20 PM72 °FSunny.6 mph65%29.92 "Hg10 mi
9:50 PM73 °FSunny.8 mph61%29.92 "Hg10 mi
9:20 PM73 °FSunny.6 mph65%29.92 "Hg10 mi
8:50 PM75 °FBroken clouds.7 mph69%29.89 "HgN/A
8:20 PM73 °FBroken clouds.7 mph89%29.89 "HgN/A
7:50 PM75 °FSunny.7 mph83%29.89 "Hg10 mi
7:20 PM75 °FMore clouds than sun.8 mph83%29.89 "HgN/A
6:50 PM75 °FSunny.7 mph83%29.89 "Hg10 mi
6:20 PM75 °FSunny.7 mph83%29.89 "Hg10 mi
5:50 PM75 °FLight rain. More clouds than sun.5 mph83%29.89 "HgN/A
5:20 PM77 °FMore clouds than sun.6 mph79%29.86 "HgN/A
4:50 PM77 °FCloudy.5 mph74%29.86 "HgN/A
4:20 PM77 °FCloudy.5 mph74%29.86 "HgN/A
3:50 PM77 °FBroken clouds.5 mph69%29.86 "HgN/A
3:20 PM75 °FLight rain. More clouds than sun.3 mph78%29.86 "HgN/A
2:50 PM75 °FLight rain. Mostly cloudy.3 mph74%29.86 "HgN/A
2:20 PM75 °FMostly cloudy.6 mph74%29.86 "HgN/A
Weather by CustomWeather, © 2014

See weather overviewHow to use our weather pages